Temp
50 50 50 50 50 48 41 33 24 40 41 28 29 25 30 35 35 38 35 35 33 30 32 30 30 29 34 37 40 41 43 40 34 37 45 47 45 41 41 31 30 33 33 37
49 49 49 49 50 48 35 30 30 39 38 20 23 30 31 34 32 33 33 33 36 37 31 25 33 33 41 36 36 41 44 37 32 32 39 43 40 38 37 36 35 32 29 38
49 49 50 50 49 47 36 28 21 30 35 29 27 25 27 28 37 34 35 34 36 33 30 35 30 31 36 36 41 44 45 37 35 32 33 37 33 38 41 38 32 34 35 38
50 50 50 50 49 48 36 29 24 29 21 27 28 26 26 26 26 35 36 32 32 32 28 31 30 33 33 37 41 42 42 34 36 37 38 38 37 37 39 36 38 32 38 39
49 49 49 49 49 48 35 29 29 32 30 28 23 27 25 27 29 29 30 28 33 34 29 33 30 33 34 35 40 39 41 32 34 34 37 37 35 39 40 39 39 39 40 39
49 49 49 49 48 45 36 37 38 32 29 29 25 25 27 28 30 34 37 32 31 32 35 39 40 41 39 39 38 37 36 34 31 28 34 35 30 36 39 41 43 42 35 44
49 49 49 49 48 46 39 36 36 29 24 28 29 31 32 31 30 27 32 35 32 39 43 42 40 40 40 40 41 41 35 34 32 28 30 22 38 45 43 40 42 43 41 42
49 49 49 48 48 48 40 38 35 31 25 30 30 31 31 32 32 31 32 33 36 39 38 34 33 33 36 38 39 38 39 35 29 26 27 33 38 41 40 37 37 36 35 37
48 48 48 48 48 49 42 41 40 35 27 28 33 30 32 29 29 31 33 39 41 36 34 33 28 26 31 31 34 38 38 38 33 28 23 21 35 41 46 44 31 35 34 33
48 48 48 48 48 48 44 41 42 36 28 33 33 30 30 35 32 29 33 33 33 39 33 30 27 28 34 29 30 30 30 31 28 28 26 32 35 40 46 31 30 35 33 31
48 48 48 48 48 48 43 41 41 36 30 32 36 37 33 34 33 27 33 32 34 33 30 30 29 28 31 30 33 32 32 29 29 31 26 24 36 42 33 36 35 34 32 31
47 48 47 48 48 48 46 39 42 41 34 34 38 40 42 39 39 34 34 32 33 33 30 32 33 30 31 29 27 36 29 30 28 32 30 33 34 32 33 34 33 33 32 32
47 47 48 48 48 48 46 40 40 37 34 35 34 34 40 42 42 44 33 36 39 37 38 33 33 30 33 29 26 28 28 33 30 29 30 30 32 33 32 32 30 31 32 31
47 47 48 48 48 48 46 40 41 39 33 27 31 41 38 43 42 41 42 41 43 41 39 33 32 29 37 30 29 27 28 30 27 30 31 32 30 30 30 30 30 29 29 29
47 47 48 48 48 49 45 42 42 42 37 27 30 37 41 42 40 38 39 38 38 36 33 33 32 35 35 33 31 24 29 26 26 25 30 28 26 28 29 27 27 28 28 26
47 47 48 48 48 48 42 33 41 44 42 33 25 36 37 40 39 37 37 37 37 36 35 35 37 39 35 29 24 27 29 31 30 30 30 28 28 28 28 26 25 25 26 26
47 47 48 48 48 44 38 36 40 46 42 33 28 29 37 40 38 37 36 38 37 37 36 34 35 33 33 28 23 25 27 30 30 32 32 27 28 25 27 26 26 27 25 25
47 47 47 48 47 45 41 43 46 44 38 35 28 28 31 41 34 34 37 33 37 37 36 36 35 32 31 22 24 26 26 29 29 28 30 29 29 29 28 29 28 24 23 23
47 47 47 44 41 37 40 46 46 44 38 30 30 26 24 39 36 37 36 37 30 36 33 34 33 27 20 23 25 24 25 25 25 29 29 28 26 26 27 27 26 23 22 22
47 43 37 31 37 46 44 39 34 34 34 35 28 31 27 35 34 32 32 34 33 29 33 31 27 20 24 25 25 26 25 26 29 28 25 26 24 24 23 23 23 22 21 20
40 35 34 40 46 39 34 30 30 31 29 32 33 30 29 38 32 32 33 32 32 28 31 30 25 20 23 26 24 25 26 26 26 26 26 26 26 24 22 21 20 19 18 16
40 40 42 40 35 33 30 28 29 29 28 31 30 32 34 35 38 33 33 31 31 27 32 28 22 21 24 24 23 23 24 24 23 24 23 23 23 23 21 19 17 15 14 12
42 37 33 33 32 27 23 19 25 24 28 27 32 31 33 35 36 33 33 29 28 31 25 23 19 23 24 23 23 22 23 22 21 20 20 19 17 17 16 12 11 12 9 9
34 31 26 27 24 25 23 25 27 29 29 31 33 33 33 33 31 32 27 28 30 24 21 22 20 21 21 21 22 19 14 14 14 13 13 11 10 7 7 7 8 9 7 5
30 30 22 20 23 23 28 28 31 32 33 34 33 33 33 29 28 29 27 26 24 25 23 18 19 19 17 15 15 13 11 10 10 11 10 9 9 9 8 6 9 8 6 6
29 25 18 21 24 27 29 29 30 33 33 34 33 29 28 26 25 26 26 23 20 21 15 14 17 14 14 14 15 12 12 12 11 11 11 11 10 11 10 9 8 6 8 6
23 15 13 16 18 23 26 29 29 32 33 30 28 23 26 27 21 20 20 19 17 13 14 17 16 15 14 12 13 13 14 13 13 12 13 11 10 11 15 15 14 14 12 8
MSLP
1019.55 1019.97 1020.16 1020.21 1020.39 1020.23 1020.37 1021.07 1021.23 1020.81 1020.47 1021.00 1020.91 1020.51 1019.72 1019.08 1017.70 1017.34 1016.85 1016.02 1015.33 1014.70 1014.29 1013.47 1012.80 1011.92 1011.50 1010.01 1009.34 1007.23 1006.52 1006.61 1007.22 1007.59 1007.71 1007.75 1007.77 1008.06 1008.57 1008.71 1008.41 1007.56 1006.12 1003.75
1019.55 1019.84 1020.10 1020.26 1020.34 1020.20 1020.90 1021.57 1021.49 1021.13 1021.05 1021.43 1021.10 1020.34 1019.59 1018.77 1017.76 1016.99 1016.51 1015.84 1015.13 1014.77 1014.69 1014.46 1012.93 1011.82 1010.75 1010.05 1009.25 1007.13 1006.65 1006.96 1007.35 1008.14 1008.33 1008.07 1008.07 1008.81 1009.09 1009.10 1009.11 1007.63 1006.42 1003.85
1019.45 1019.77 1019.97 1020.20 1020.19 1020.17 1020.82 1021.75 1021.95 1021.76 1021.35 1021.48 1021.32 1020.64 1019.52 1018.56 1017.51 1016.81 1016.52 1015.64 1015.06 1014.65 1014.25 1013.92 1012.89 1012.05 1010.73 1009.62 1008.40 1007.38 1006.81 1007.31 1007.47 1007.68 1007.96 1008.37 1008.66 1008.68 1008.70 1008.83 1008.64 1007.36 1006.35 1004.82
1019.34 1019.61 1019.79 1019.94 1020.01 1020.08 1020.89 1021.89 1022.30 1022.14 1021.83 1021.36 1021.21 1020.91 1019.86 1018.73 1017.87 1016.96 1016.25 1015.32 1014.63 1014.28 1014.01 1013.19 1012.52 1011.94 1010.86 1009.61 1008.73 1007.94 1007.42 1007.97 1008.22 1008.49 1008.56 1008.67 1008.62 1008.45 1008.32 1008.37 1007.79 1007.56 1005.66 1005.49
1019.20 1019.36 1019.63 1019.74 1019.87 1020.15 1021.08 1021.82 1021.92 1021.95 1021.63 1021.39 1021.18 1020.38 1019.57 1018.76 1018.04 1017.44 1015.93 1015.37 1014.30 1014.07 1013.96 1012.82 1012.22 1012.11 1011.45 1010.41 1009.48 1008.65 1008.87 1009.05 1009.18 1009.19 1008.99 1008.82 1008.53 1008.02 1007.79 1007.66 1007.46 1007.11 1006.50 1005.26
1018.83 1019.13 1019.36 1019.52 1019.76 1020.22 1020.92 1021.27 1021.50 1021.84 1021.39 1021.01 1020.78 1020.14 1019.38 1018.67 1018.07 1016.29 1015.74 1015.14 1014.19 1013.45 1013.08 1012.81 1012.06 1011.68 1011.41 1010.95 1010.44 1009.58 1009.78 1009.83 1010.03 1009.86 1009.41 1008.84 1008.37 1007.82 1007.49 1007.23 1007.17 1007.04 1006.46 1005.76
1018.57 1018.78 1019.02 1019.20 1019.49 1019.87 1020.37 1020.84 1021.43 1021.68 1021.24 1020.80 1020.17 1019.58 1019.17 1018.42 1017.96 1016.79 1015.30 1013.95 1013.54 1013.00 1012.79 1012.16 1011.55 1010.92 1010.59 1010.69 1010.45 1010.26 1010.24 1010.31 1010.52 1010.22 1009.77 1008.89 1007.90 1007.52 1007.44 1007.44 1007.50 1007.47 1007.41 1007.15
1018.22 1018.46 1018.68 1018.87 1019.00 1019.34 1020.10 1020.69 1021.10 1021.34 1021.01 1020.50 1019.71 1019.17 1018.82 1018.08 1017.31 1016.28 1015.31 1015.08 1014.25 1013.13 1012.78 1012.08 1011.26 1010.76 1010.09 1009.51 1009.66 1010.11 1010.27 1010.64 1010.77 1010.67 1009.86 1009.01 1008.10 1007.94 1007.86 1007.86 1008.03 1009.12 1008.89 1008.09
1017.84 1018.10 1018.36 1018.57 1018.67 1018.83 1019.61 1019.99 1020.39 1021.11 1021.21 1020.17 1019.72 1019.18 1018.35 1017.85 1016.88 1015.92 1015.39 1014.39 1013.89 1013.65 1012.82 1011.92 1011.25 1010.80 1010.54 1010.25 1010.42 1010.54 1010.66 1010.75 1010.97 1011.03 1010.21 1009.53 1008.96 1008.75 1008.49 1008.56 1009.24 1010.42 1010.34 1008.97
1017.51 1017.73 1018.01 1018.25 1018.35 1018.48 1019.07 1019.43 1019.92 1020.69 1020.79 1019.94 1019.67 1019.26 1018.64 1018.26 1017.93 1017.40 1016.28 1015.54 1014.26 1013.48 1012.90 1012.46 1012.14 1011.56 1011.29 1011.09 1010.82 1011.02 1011.29 1011.43 1011.39 1011.33 1011.10 1010.41 1010.61 1009.83 1008.89 1009.88 1012.22 1012.17 1011.92 1011.38
1017.12 1017.36 1017.64 1017.81 1017.95 1018.14 1018.76 1019.06 1019.60 1020.11 1020.29 1019.73 1019.23 1018.89 1018.65 1018.27 1018.36 1018.20 1017.07 1016.03 1015.27 1014.56 1013.91 1013.50 1013.18 1012.65 1012.24 1011.97 1011.72 1011.79 1011.85 1012.07 1011.94 1011.86 1011.99 1012.03 1011.96 1010.89 1011.85 1012.66 1013.03 1013.27 1013.51 1013.40
1016.66 1016.98 1017.15 1017.29 1017.46 1017.73 1018.29 1018.90 1019.31 1019.77 1020.05 1019.43 1019.08 1018.45 1017.95 1017.99 1018.08 1018.19 1017.80 1017.53 1016.77 1016.35 1015.77 1014.94 1014.17 1013.46 1013.07 1012.91 1012.59 1012.63 1013.17 1013.83 1013.68 1013.40 1013.59 1014.00 1014.28 1014.45 1014.82 1014.39 1014.53 1014.55 1014.76 1015.21
1016.21 1016.49 1016.69 1016.82 1017.07 1017.35 1017.86 1018.45 1019.13 1019.84 1019.83 1019.09 1018.61 1017.38 1017.02 1017.15 1017.26 1017.31 1017.95 1017.17 1016.73 1016.59 1016.72 1016.07 1014.97 1014.24 1013.72 1013.40 1014.07 1014.20 1014.69 1014.87 1014.50 1014.65 1015.29 1015.56 1015.77 1016.10 1016.24 1016.35 1016.29 1016.30 1016.51 1016.78
1015.77 1016.00 1016.17 1016.30 1016.56 1016.86 1017.51 1018.01 1018.71 1019.21 1019.65 1019.58 1017.84 1016.84 1016.50 1016.16 1016.48 1016.89 1016.89 1016.81 1016.61 1016.70 1016.65 1016.25 1015.28 1014.87 1014.14 1014.36 1015.20 1015.85 1016.69 1016.24 1015.98 1015.67 1015.99 1016.50 1017.31 1017.72 1017.87 1017.90 1017.91 1017.79 1018.11 1018.19
1015.29 1015.26 1015.39 1015.52 1015.76 1016.32 1017.19 1017.67 1018.18 1018.36 1018.99 1019.07 1017.91 1016.78 1016.04 1015.79 1016.04 1016.40 1016.75 1016.95 1017.02 1017.00 1016.72 1016.02 1015.16 1014.81 1014.70 1015.29 1016.14 1017.46 1018.01 1017.87 1017.35 1017.26 1017.44 1017.78 1018.97 1019.25 1019.37 1019.30 1019.28 1019.29 1019.31 1019.47
1014.76 1014.76 1014.81 1014.79 1015.01 1015.84 1016.96 1017.75 1018.13 1018.00 1018.47 1018.98 1018.44 1017.00 1016.24 1015.96 1016.10 1016.35 1016.53 1016.75 1016.96 1016.88 1016.50 1015.79 1015.16 1015.04 1015.24 1015.81 1017.28 1018.82 1018.96 1018.68 1018.23 1018.26 1018.55 1019.01 1019.71 1020.27 1020.59 1020.61 1020.78 1020.83 1020.69 1020.78
1014.19 1014.29 1014.28 1014.31 1014.75 1015.66 1016.38 1016.54 1016.44 1017.20 1018.47 1018.88 1018.40 1017.39 1016.37 1016.09 1016.20 1016.50 1016.65 1016.65 1016.56 1016.51 1016.05 1015.62 1015.44 1015.58 1015.93 1016.83 1018.28 1019.58 1019.71 1019.46 1019.38 1019.15 1019.00 1019.80 1020.19 1021.03 1021.41 1021.55 1021.68 1021.75 1021.93 1022.12
1013.66 1013.80 1013.86 1013.91 1014.64 1015.48 1016.13 1016.23 1016.41 1017.34 1018.18 1018.55 1018.27 1017.47 1016.77 1015.99 1016.11 1016.28 1016.35 1016.40 1016.29 1015.85 1015.62 1015.65 1015.59 1016.37 1017.02 1018.30 1019.73 1020.32 1020.50 1020.35 1020.34 1020.34 1020.36 1020.73 1021.39 1021.60 1021.79 1022.01 1022.21 1022.34 1022.73 1023.28
1013.23 1013.45 1013.75 1014.17 1014.88 1015.37 1015.78 1016.41 1017.10 1017.37 1018.12 1017.94 1017.89 1017.43 1016.68 1015.87 1015.83 1015.83 1016.04 1015.96 1016.01 1015.84 1015.49 1015.72 1016.27 1017.33 1018.61 1019.82 1020.51 1021.12 1021.48 1021.52 1021.45 1021.44 1021.60 1021.85 1022.08 1022.35 1022.53 1022.71 1023.08 1023.36 1023.95 1024.38
1012.86 1013.29 1013.91 1014.76 1014.87 1015.04 1016.01 1017.23 1017.57 1017.69 1017.67 1017.42 1017.25 1016.90 1016.49 1016.01 1015.76 1015.85 1016.07 1015.71 1015.46 1015.35 1015.42 1016.09 1016.99 1018.82 1020.29 1021.17 1021.83 1022.17 1022.33 1022.29 1021.83 1021.80 1022.21 1022.52 1022.85 1023.22 1023.58 1024.00 1024.47 1024.87 1025.29 1025.74
1012.55 1013.32 1013.97 1014.45 1014.68 1015.35 1016.20 1016.79 1017.13 1017.22 1017.10 1016.59 1016.06 1016.16 1015.86 1015.72 1015.69 1015.67 1015.81 1015.34 1015.14 1015.09 1015.44 1016.20 1017.70 1019.31 1020.66 1021.84 1022.60 1023.04 1023.19 1023.26 1023.27 1023.43 1023.63 1023.72 1023.80 1024.14 1024.68 1025.40 1025.96 1026.42 1026.87 1027.33
1012.32 1012.68 1013.66 1014.51 1014.90 1015.31 1015.85 1016.29 1016.54 1016.44 1015.79 1015.48 1015.60 1015.51 1015.50 1015.41 1015.33 1015.39 1015.40 1015.04 1015.17 1015.11 1015.73 1016.87 1018.37 1020.15 1021.40 1022.42 1023.27 1023.82 1024.15 1024.38 1024.54 1024.68 1024.75 1025.06 1025.33 1025.70 1026.25 1026.90 1027.54 1028.13 1028.56 1028.89
1012.17 1012.84 1013.88 1014.42 1014.79 1015.04 1015.51 1015.68 1015.53 1015.33 1014.82 1014.97 1014.95 1015.05 1015.14 1015.37 1015.39 1015.30 1014.99 1014.96 1015.20 1015.79 1016.66 1017.91 1019.64 1020.98 1022.28 1023.25 1024.02 1024.67 1025.07 1025.38 1025.74 1026.08 1026.35 1026.65 1026.99 1027.37 1027.80 1028.46 1029.07 1029.24 1029.56 1030.07
1012.21 1013.08 1013.98 1014.40 1014.63 1014.51 1014.31 1014.21 1014.04 1013.84 1013.95 1014.23 1014.44 1014.74 1014.85 1015.15 1015.33 1015.09 1015.29 1015.71 1015.91 1016.91 1018.09 1019.09 1020.67 1022.07 1023.31 1024.17 1024.85 1025.49 1026.23 1026.76 1027.05 1027.46 1027.70 1028.08 1028.41 1029.01 1029.59 1029.73 1029.90 1030.04 1030.41 1031.01
1012.52 1013.00 1013.96 1014.71 1014.40 1014.36 1014.04 1013.92 1014.03 1014.05 1013.97 1014.07 1014.48 1014.82 1015.00 1015.25 1015.46 1015.63 1016.16 1016.70 1017.26 1018.11 1019.09 1020.55 1021.94 1023.21 1024.25 1025.13 1025.85 1026.45 1027.16 1027.70 1028.12 1028.39 1028.75 1029.11 1029.36 1029.73 1030.17 1030.40 1030.39 1030.51 1030.91 1031.26
1013.33 1013.91 1014.93 1014.95 1015.00 1014.78 1014.46 1014.40 1014.30 1014.16 1014.11 1014.16 1014.46 1014.99 1015.34 1015.59 1015.91 1016.55 1016.97 1017.93 1018.63 1019.59 1020.91 1022.18 1023.26 1024.29 1025.09 1025.83 1026.49 1027.10 1027.59 1028.03 1028.49 1028.85 1029.17 1029.50 1029.67 1029.77 1030.06 1030.31 1030.47 1030.72 1030.94 1031.21
1014.25 1015.47 1015.31 1015.07 1015.28 1015.14 1014.99 1014.70 1014.81 1014.59 1014.37 1014.69 1015.09 1015.62 1015.74 1016.37 1017.10 1017.84 1018.57 1019.36 1020.35 1021.26 1022.34 1023.30 1024.06 1024.81 1025.67 1026.34 1026.72 1027.22 1027.70 1028.12 1028.48 1028.86 1029.15 1029.51 1029.84 1029.92 1029.90 1030.15 1030.44 1030.61 1030.83 1030.97
Wind_Speed
1 1 2 4 4 3 6 1 3 2 3 2 0 2 3 6 11 7 7 7 10 13 11 7 4 7 8 16 19 5 2 4 4 3 1 3 2 4 5 2 2 3 4 6
1 2 1 2 2 4 3 2 1 1 3 2 1 4 6 7 8 6 3 6 7 10 6 7 8 6 5 16 8 5 4 1 6 4 3 2 3 4 3 4 3 5 4 3
4 3 2 2 3 8 4 3 3 3 0 1 2 4 6 6 6 11 8 11 10 15 9 10 8 8 9 10 6 7 2 4 1 3 5 4 2 3 2 3 3 5 11 17
5 4 3 2 4 9 4 2 1 2 3 2 4 2 3 10 8 4 9 6 15 13 4 5 7 5 8 7 10 3 3 5 4 2 4 4 3 6 7 8 13 7 16 16
5 5 5 3 9 9 3 3 2 2 4 4 0 4 3 9 8 5 9 9 17 12 10 9 7 2 4 4 5 5 5 3 2 2 1 4 6 11 10 10 10 13 17 21
8 8 6 5 12 7 2 2 2 1 3 3 1 3 4 10 14 12 12 18 16 13 12 8 12 8 10 7 7 2 2 4 3 3 2 7 4 0 4 7 8 9 13 14
5 5 7 7 13 9 3 2 2 2 4 3 4 8 14 13 14 14 18 10 10 2 7 10 7 9 11 11 5 1 4 4 1 2 5 2 2 8 3 5 12 11 13 17
8 7 7 7 9 17 3 3 3 2 3 4 10 9 8 10 10 9 4 8 7 11 4 2 2 1 2 3 2 3 3 3 2 2 2 5 2 5 6 9 14 14 13 18
7 7 7 6 6 8 6 3 3 2 1 3 4 6 9 7 9 9 5 11 5 4 2 1 0 1 2 2 2 7 4 2 2 1 2 2 2 10 11 9 3 15 15 19
7 8 8 8 8 7 5 2 7 3 2 3 3 3 5 4 5 6 7 14 8 5 4 3 4 3 2 2 2 1 3 2 3 2 2 5 11 15 11 4 6 9 15 14
9 9 10 10 9 9 5 2 8 4 3 4 6 3 4 5 3 5 10 6 5 5 7 4 3 3 3 3 3 4 1 3 2 3 4 3 14 5 6 3 2 8 11 14
10 11 11 10 9 11 8 3 6 3 2 4 2 7 10 8 8 2 2 2 4 3 4 4 3 2 2 2 1 5 2 5 4 4 3 7 9 10 9 11 7 10 10 11
12 10 10 10 10 10 9 3 4 2 2 6 3 6 4 9 11 7 2 2 1 0 1 3 2 3 1 2 2 3 7 8 2 2 6 11 12 11 12 11 11 13 12 11
9 10 12 12 12 13 9 4 5 2 2 2 6 3 6 3 7 11 12 8 3 2 2 3 2 3 2 3 3 3 4 8 7 2 8 7 14 13 10 11 10 13 14 13
11 12 11 11 14 16 7 3 6 3 2 2 5 7 3 3 6 9 8 7 5 1 3 3 2 2 2 3 3 3 6 4 4 3 4 10 8 10 11 12 12 13 12 15
12 12 13 12 9 16 4 1 3 6 3 1 4 4 4 3 3 5 4 3 3 2 3 3 3 1 3 2 3 3 5 6 11 3 11 12 12 11 10 11 11 12 14 14
12 11 11 9 16 9 3 4 3 13 5 2 4 5 2 1 3 1 1 3 2 2 2 2 2 2 3 2 3 4 7 8 10 6 10 10 13 6 8 10 11 14 15 14
10 10 8 7 19 11 2 2 16 11 3 2 2 4 3 3 1 1 2 2 2 3 2 2 1 1 2 3 5 6 8 6 10 12 12 12 9 9 10 10 10 14 14 13
9 8 9 5 3 3 3 16 14 2 1 2 2 2 3 1 2 1 1 1 2 2 2 1 1 1 3 4 6 6 7 5 3 9 10 10 11 10 10 11 12 13 12 11
10 4 3 2 2 27 17 3 2 1 2 3 3 1 3 2 1 1 1 2 2 2 2 3 3 2 7 7 6 5 6 7 6 4 7 8 9 10 11 12 10 10 10 10
1 3 2 2 16 4 2 4 3 3 3 4 3 5 2 1 2 2 3 1 1 3 2 2 2 2 4 7 6 6 7 8 9 10 8 8 8 9 10 10 10 10 10 10
5 6 5 3 2 2 4 4 3 5 5 4 4 5 4 3 2 2 3 2 2 2 2 1 2 3 9 7 7 7 7 8 9 8 10 10 11 10 11 10 10 9 8 7
3 4 4 3 3 4 7 7 4 4 4 4 4 4 4 2 1 3 2 3 1 2 1 1 1 7 7 7 7 8 8 9 10 11 11 12 12 11 11 10 6 8 9 6
3 5 6 6 4 5 6 4 4 2 3 6 4 3 2 2 4 1 2 0 1 1 2 2 5 8 8 6 6 8 7 8 10 9 9 9 9 7 6 5 4 6 7 4
2 4 6 5 2 1 2 2 3 1 4 4 4 2 1 1 1 1 2 2 3 3 3 3 6 9 8 7 8 8 7 6 7 7 7 6 6 7 7 4 5 7 6 6
1 4 3 2 3 3 2 2 3 1 2 2 3 3 2 2 3 4 4 4 5 2 2 3 7 6 6 7 7 7 7 8 7 6 6 6 5 6 6 4 4 3 4 4
4 1 1 3 2 3 2 1 1 2 1 2 3 4 3 3 2 2 2 3 1 3 4 4 5 8 8 6 7 7 7 7 6 4 4 5 4 3 3 4 3 3 3 2
Wind_Direction
257 302 347 2 36 102 50 82 52 323 10 53 263 253 281 306 290 286 280 280 265 265 294 294 246 241 296 335 314 208 213 110 138 109 112 164 139 155 187 193 136 269 279 264
297 166 321 350 20 130 120 72 274 351 81 91 290 285 273 264 283 275 255 263 270 291 288 314 292 272 250 276 268 178 188 118 124 123 107 74 105 87 143 156 210 246 275 268
197 191 241 298 16 157 90 83 27 335 159 150 258 294 287 294 277 269 251 261 266 278 277 249 273 296 302 312 302 39 79 92 41 116 103 123 155 213 245 188 235 279 262 289
186 235 264 242 150 154 92 61 244 186 294 279 235 270 274 296 319 254 282 269 238 253 276 256 237 278 300 331 303 347 62 85 40 53 139 164 216 240 240 232 252 256 279 285
217 216 228 220 152 132 81 133 157 199 273 273 331 272 265 294 316 275 280 255 268 269 224 257 318 325 275 6 326 23 8 94 73 286 94 155 242 247 256 260 259 253 271 280
223 230 230 231 159 121 143 162 151 112 273 283 315 241 268 310 306 292 303 290 270 260 255 266 274 220 256 281 308 67 63 121 142 229 323 304 250 52 313 280 283 290 290 299
209 230 236 230 184 168 137 157 124 206 283 267 272 297 301 321 320 295 301 313 232 11 339 295 252 259 252 249 242 31 122 96 23 282 293 167 125 317 293 292 297 332 319 311
229 236 251 240 217 191 124 153 138 180 276 287 290 304 313 312 292 303 322 352 304 323 318 258 231 252 320 343 39 171 124 141 130 262 261 286 99 37 353 342 317 7 320 304
224 231 244 256 241 218 166 175 127 157 192 258 322 321 308 327 327 335 317 345 295 244 264 312 294 78 353 41 91 54 96 40 311 283 346 321 57 336 319 300 294 2 342 329
227 230 243 253 250 229 156 154 144 151 197 270 204 261 313 327 355 312 308 345 331 339 7 51 24 11 334 26 23 124 92 108 234 229 277 275 358 324 311 333 354 359 7 14
232 240 251 252 239 231 153 154 169 162 195 254 205 231 260 298 325 324 316 328 6 347 22 11 10 338 11 308 356 341 293 214 210 185 207 282 354 1 23 360 71 50 31 31
237 247 252 246 230 224 153 174 178 169 207 263 205 230 225 218 221 245 309 291 283 358 343 351 298 325 323 305 330 4 97 11 324 337 43 48 34 57 27 30 49 55 60 55
245 246 247 241 220 222 169 126 123 110 308 282 297 256 238 210 210 189 214 254 277 34 93 304 310 290 321 263 49 340 5 23 303 315 62 57 46 50 45 39 47 53 56 63
249 251 243 240 224 220 163 147 150 141 133 277 281 293 273 195 164 195 214 242 308 357 328 273 280 276 317 52 80 69 352 321 325 58 127 101 44 38 36 38 46 62 57 56
255 262 260 249 240 203 160 125 178 174 160 249 283 303 279 293 161 187 206 225 243 313 291 262 256 259 314 93 101 51 345 345 341 24 347 83 52 43 44 52 43 47 63 63
253 256 262 257 215 167 123 145 187 187 102 344 309 307 305 16 116 159 182 177 184 213 236 261 290 82 319 91 82 40 351 358 17 66 75 93 91 61 57 68 69 64 63 62
249 253 253 268 159 150 158 192 185 158 109 202 287 300 284 324 108 110 137 186 201 216 240 243 269 34 27 53 90 36 1 25 34 43 132 74 52 76 76 82 78 78 74 66
251 253 253 218 146 116 88 17 134 126 118 198 265 272 316 182 158 161 163 165 218 211 267 268 354 64 64 85 80 54 19 27 51 52 66 86 91 82 76 74 76 71 66 69
236 251 99 101 96 148 134 132 126 90 144 193 213 247 261 274 208 166 157 172 207 270 245 194 258 29 57 72 92 61 37 25 6 96 89 88 81 76 71 74 72 76 74 71
216 141 96 118 209 112 104 68 108 155 208 214 229 129 256 157 154 73 260 222 229 252 197 96 60 84 89 82 72 68 52 30 17 120 79 89 83 81 78 73 72 77 78 76
122 123 95 100 151 83 119 142 183 166 224 202 226 176 193 191 177 173 212 234 218 247 130 274 143 151 127 119 94 72 71 69 73 82 82 74 89 99 96 86 79 79 81 81
161 114 82 93 145 146 145 156 160 204 224 186 176 200 206 164 159 216 178 234 199 261 95 130 223 115 126 122 103 86 88 90 83 79 82 79 80 85 92 91 87 82 84 82
134 83 122 174 163 177 167 183 192 199 192 178 174 154 148 119 175 222 217 238 160 119 54 259 81 138 127 125 119 104 95 92 94 88 88 88 85 79 94 100 95 101 89 80
129 163 139 192 173 214 189 191 173 211 128 141 145 115 143 179 179 224 190 235 183 145 260 212 154 142 137 121 116 115 95 95 100 98 95 90 90 85 70 82 105 109 99 103
122 138 177 193 222 177 165 157 125 102 142 131 117 94 145 128 147 196 135 165 229 238 227 127 141 137 132 122 121 123 120 107 99 104 105 111 114 113 104 86 100 102 109 104
94 65 88 155 114 148 137 170 126 60 132 93 72 113 167 183 174 173 197 169 221 194 164 148 132 126 126 133 127 116 123 122 123 116 115 117 98 89 95 97 83 100 110 114
86 329 244 113 84 124 127 80 81 357 99 163 126 154 185 94 97 217 206 204 163 160 141 127 131 140 140 132 124 120 118 112 107 105 88 86 89 100 78 82 90 117 122 138